Airport METAR Information

LTBA 161020Z 35017KT 9999 SCT030 29/21 Q1011 NOSIG

VATSIM Livefeed

Card image cap

ATC Bookings

No position booked

Card image cap

Active ATC

No controllers online

Blog

Read our latest news and get to know us better.